When you browse on this site, cookies collect data to enhance your experience and personalize the content and advertising you see.
Visit our Privacy Policy to learn more. By continuing to use the site, you agree to this use of cookies and data.
  • Em Portugal
  • Lista de países
  • Para 7 dias
  • Temperatura da água
  • Mapa do tempo
  • Widgets de tempo
  • user-avatar
    Iniciar Sessão

    Previsão horária em Kapan

    Hoje, 16 Outubro, Quarta-feira

    Tempo Temperatura Precipitação Vento Pressão Humidade
    00:00 +16°C° 0 mm 1 m/s 688 mmHg 37%
    01:00 +16°C° 0 mm 1 m/s 688 mmHg 36%
    02:00 +15°C° 0 mm 1 m/s 687 mmHg 34%
    03:00 +15°C° 0 mm 1 m/s 687 mmHg 32%
    04:00 +15°C° 0 mm 1 m/s 687 mmHg 32%
    05:00 +15°C° 0 mm 1 m/s 687 mmHg 31%
    06:00 +14°C° 0 mm 1 m/s 687 mmHg 31%
    07:00 +18°C° 0 mm 1 m/s 688 mmHg 27%
    08:00 +21°C° 0 mm 1 m/s 689 mmHg 24%
    09:00 +23°C° 0 mm 1 m/s 690 mmHg 20%
    10:00 +24°C° 0 mm 1 m/s 689 mmHg 20%
    11:00 +25°C° 0 mm 2 m/s 689 mmHg 20%
    12:00 +27°C° 0 mm 2 m/s 689 mmHg 19%
    13:00 +26°C° 0 mm 2 m/s 689 mmHg 21%
    14:00 +26°C° 0 mm 3 m/s 689 mmHg 22%
    15:00 +26°C° 0 mm 3 m/s 688 mmHg 23%
    16:00 +24°C° 0 mm 2 m/s 688 mmHg 31%
    17:00 +21°C° 0 mm 1 m/s 687 mmHg 39%
    18:00 +19°C° 0 mm 1 m/s 687 mmHg 47%
    19:00 +18°C° 0 mm 1 m/s 687 mmHg 47%
    20:00 +18°C° 0 mm 1 m/s 687 mmHg 47%
    21:00 +18°C° 0 mm 1 m/s 687 mmHg 47%
    22:00 +16°C° 0 mm 1 m/s 687 mmHg 46%
    23:00 +16°C° 0 mm 1 m/s 688 mmHg 46%

    Amanhã, 17 Outubro, Quinta-feira

    Tempo Temperatura Precipitação Vento Pressão Humidade
    00:00 +16°C° 0 mm 1 m/s 688 mmHg 45%
    01:00 +16°C° 0 mm 1 m/s 688 mmHg 44%
    02:00 +15°C° 0 mm 1 m/s 688 mmHg 43%
    03:00 +15°C° 0 mm 1 m/s 688 mmHg 42%
    04:00 +15°C° 0 mm 1 m/s 688 mmHg 41%
    05:00 +15°C° 0 mm 1 m/s 688 mmHg 40%
    06:00 +15°C° 0 mm 1 m/s 688 mmHg 38%
    07:00 +18°C° 0 mm 1 m/s 689 mmHg 35%
    08:00 +20°C° 0 mm 1 m/s 689 mmHg 32%
    09:00 +22°C° 0 mm 1 m/s 690 mmHg 29%
    10:00 +23°C° 0 mm 2 m/s 690 mmHg 29%
    11:00 +24°C° 0 mm 2 m/s 690 mmHg 29%
    12:00 +25°C° 0 mm 3 m/s 690 mmHg 28%
    13:00 +25°C° 0 mm 3 m/s 689 mmHg 30%
    14:00 +25°C° 0 mm 3 m/s 689 mmHg 32%
    15:00 +24°C° 0 mm 3 m/s 688 mmHg 35%
    16:00 +21°C° 0 mm 2 m/s 688 mmHg 42%
    17:00 +20°C° 0 mm 1 m/s 688 mmHg 50%
    18:00 +16°C° 0 mm 0 m/s 687 mmHg 57%
    19:00 +18°C° 0 mm 1 m/s 687 mmHg 56%
    20:00 +16°C° 0 mm 1 m/s 687 mmHg 55%
    21:00 +16°C° 0 mm 1 m/s 687 mmHg 54%
    22:00 +16°C° 0 mm 1 m/s 687 mmHg 52%
    23:00 +16°C° 0 mm 1 m/s 687 mmHg 50%

    Depois de amanhã, 18 Outubro, Sexta-feira

    Tempo Temperatura Precipitação Vento Pressão Humidade
    00:00 +15°C° 0 mm 1 m/s 687 mmHg 49%
    01:00 +15°C° 0 mm 1 m/s 687 mmHg 46%
    02:00 +15°C° 0 mm 1 m/s 686 mmHg 44%
    03:00 +15°C° 0 mm 1 m/s 686 mmHg 41%
    04:00 +15°C° 0 mm 1 m/s 686 mmHg 41%
    05:00 +15°C° 0 mm 1 m/s 686 mmHg 40%
    06:00 +15°C° 0 mm 1 m/s 687 mmHg 40%
    07:00 +18°C° 0 mm 1 m/s 687 mmHg 37%
    08:00 +20°C° 0 mm 1 m/s 687 mmHg 33%
    09:00 +23°C° 0 mm 1 m/s 688 mmHg 30%
    10:00 +24°C° 0 mm 1 m/s 688 mmHg 28%
    11:00 +25°C° 0 mm 2 m/s 688 mmHg 27%
    12:00 +26°C° 0 mm 2 m/s 688 mmHg 26%
    13:00 +26°C° 0 mm 2 m/s 687 mmHg 28%
    14:00 +26°C° 0 mm 2 m/s 687 mmHg 29%
    15:00 +26°C° 0 mm 2 m/s 686 mmHg 31%
    16:00 +24°C° 0 mm 2 m/s 686 mmHg 38%
    17:00 +22°C° 0 mm 1 m/s 685 mmHg 45%
    18:00 +19°C° 0 mm 1 m/s 685 mmHg 53%
    19:00 +19°C° 0 mm 1 m/s 685 mmHg 53%
    20:00 +19°C° 0 mm 1 m/s 685 mmHg 53%
    21:00 +18°C° 0 mm 1 m/s 685 mmHg 53%
    22:00 +18°C° 0 mm 1 m/s 685 mmHg 52%
    23:00 +18°C° 0 mm 1 m/s 685 mmHg 51%

    19 Outubro, Sábado

    Tempo Temperatura Precipitação Vento Pressão Humidade
    00:00 +18°C° 0 mm 1 m/s 685 mmHg 49%
    01:00 +18°C° 0 mm 1 m/s 685 mmHg 49%
    02:00 +18°C° 0 mm 1 m/s 685 mmHg 49%
    03:00 +15°C° 0 mm 0 m/s 685 mmHg 48%
    04:00 +16°C° 0 mm 1 m/s 685 mmHg 49%
    05:00 +16°C° 0 mm 1 m/s 685 mmHg 49%
    06:00 +16°C° 0 mm 1 m/s 685 mmHg 50%
    07:00 +19°C° 0 mm 1 m/s 686 mmHg 45%
    08:00 +21°C° 0 mm 1 m/s 686 mmHg 41%
    09:00 +23°C° 0 mm 1 m/s 687 mmHg 36%
    10:00 +24°C° 0 mm 2 m/s 687 mmHg 35%
    11:00 +25°C° 0 mm 2 m/s 687 mmHg 34%
    12:00 +26°C° 0 mm 3 m/s 687 mmHg 33%
    13:00 +25°C° 0 mm 3 m/s 687 mmHg 35%
    14:00 +25°C° 0 mm 3 m/s 686 mmHg 37%
    15:00 +24°C° 0 mm 3 m/s 686 mmHg 39%
    16:00 +23°C° 0 mm 2 m/s 686 mmHg 45%
    17:00 +21°C° 0 mm 1 m/s 686 mmHg 50%
    18:00 +20°C° 0 mm 1 m/s 686 mmHg 56%
    19:00 +19°C° 0 mm 1 m/s 686 mmHg 59%
    20:00 +17°C° 0 mm 0 m/s 686 mmHg 62%
    21:00 +16°C° 0 mm 0 m/s 686 mmHg 64%
    22:00 +16°C° 0 mm 0 m/s 686 mmHg 65%
    23:00 +18°C° 0 mm 1 m/s 687 mmHg 66%

    20 Outubro, Domingo

    Tempo Temperatura Precipitação Vento Pressão Humidade
    00:00 +16°C° 0 mm 1 m/s 687 mmHg 67%
    01:00 +16°C° 0 mm 1 m/s 686 mmHg 67%
    02:00 +16°C° 0 mm 1 m/s 686 mmHg 67%
    03:00 +16°C° 0 mm 1 m/s 686 mmHg 67%
    04:00 +15°C° 0 mm 0 m/s 686 mmHg 69%
    05:00 +14°C° 0 mm 0 m/s 686 mmHg 71%
    06:00 +14°C° 0 mm 0 m/s 686 mmHg 73%
    07:00 +16°C° 0 mm 1 m/s 687 mmHg 66%
    08:00 +19°C° 0 mm 1 m/s 687 mmHg 59%
    09:00 +20°C° 0 mm 1 m/s 688 mmHg 53%
    10:00 +20°C° 0 mm 2 m/s 688 mmHg 48%
    11:00 +21°C° 0 mm 2 m/s 688 mmHg 43%
    12:00 +21°C° 0 mm 3 m/s 688 mmHg 38%
    13:00 +21°C° 0 mm 3 m/s 687 mmHg 40%
    14:00 +21°C° 0 mm 3 m/s 687 mmHg 42%
    15:00 +21°C° 0 mm 3 m/s 687 mmHg 43%
    16:00 +19°C° 0 mm 3 m/s 686 mmHg 53%
    17:00 +17°C° 0 mm 2 m/s 686 mmHg 62%
    18:00 +16°C° 0 mm 1 m/s 686 mmHg 71%
    19:00 +15°C° 0 mm 1 m/s 686 mmHg 74%
    20:00 +15°C° 0 mm 1 m/s 687 mmHg 77%
    21:00 +14°C° 0 mm 1 m/s 687 mmHg 80%
    22:00 +14°C° 0 mm 1 m/s 687 mmHg 80%
    23:00 +14°C° 0 mm 1 m/s 687 mmHg 80%

    21 Outubro, Segunda-feira

    Tempo Temperatura Precipitação Vento Pressão Humidade
    00:00 +13°C° 0 mm 1 m/s 687 mmHg 80%
    01:00 +13°C° 0 mm 1 m/s 687 mmHg 79%
    02:00 +13°C° 0 mm 1 m/s 687 mmHg 78%
    03:00 +13°C° 0 mm 1 m/s 687 mmHg 78%
    04:00 +13°C° 0 mm 1 m/s 687 mmHg 78%
    05:00 +13°C° 0 mm 1 m/s 687 mmHg 78%
    06:00 +13°C° 0 mm 1 m/s 687 mmHg 79%
    07:00 +14°C° 0 mm 1 m/s 688 mmHg 71%
    08:00 +15°C° 0 mm 1 m/s 688 mmHg 63%
    09:00 +18°C° 0 mm 1 m/s 688 mmHg 55%
    10:00 +18°C° 0 mm 2 m/s 688 mmHg 51%
    11:00 +18°C° 0 mm 2 m/s 688 mmHg 46%
    12:00 +19°C° 0 mm 3 m/s 688 mmHg 42%
    13:00 +19°C° 0 mm 3 m/s 688 mmHg 41%
    14:00 +19°C° 0 mm 3 m/s 688 mmHg 40%
    15:00 +19°C° 0 mm 3 m/s 688 mmHg 39%
    16:00 +17°C° 0 mm 2 m/s 687 mmHg 43%
    17:00 +16°C° 0 mm 2 m/s 687 mmHg 48%
    18:00 +14°C° 0 mm 1 m/s 687 mmHg 52%
    19:00 +14°C° 0 mm 1 m/s 687 mmHg 54%
    20:00 +13°C° 0 mm 1 m/s 687 mmHg 57%
    21:00 +13°C° 0 mm 1 m/s 687 mmHg 59%
    22:00 +12°C° 0 mm 1 m/s 687 mmHg 60%
    23:00 +12°C° 0 mm 1 m/s 687 mmHg 62%
    Mostrar mais